Portada
METAR-TAF:

METAR-TAF

Aeroports :

Hat Yai, Tailàndia

latitud: 06-55N, longitud: 100-26E, altitud: 27 m

Observació

L'informe es va fer fa 15 minuts, a les 17:30 UTC
Vent 3 kt del Sud-Oest
Temperatura 27°C
Humitat 89%
Pressió 1009 hPa
Visibilitat 10 km o més
Escasses núvols a una alçada de 2000 ft

METAR: VTSS 311730Z 23003KT 9999 FEW020 27/25 Q1009 NOSIG

Hora: 00:45 (17:45 UTC)

Pronòstic

L'informe es va fer fa 45 minuts, a les 17:00 UTC
Pronòstic vàlid del 31 a les 18 UTC al 01 a les 18 UTC
Vent 3 kt del Oest
Visibilitat 10 km o més
Escasses núvols a una alçada de 2000 ft
Evolucionant progressivament
l' 01 a les 04 UTC al 01 a les 06 UTC
Vent 10 kt del Est/Nord-Est
Evolucionant progressivament
l' 01 a les 14 UTC al 01 a les 16 UTC
Vent 3 kt del Oest

TAF: VTSS 311700Z 3118/0118 27003KT 9999 FEW020 BECMG 0104/0106 06010KT BECMG 0114/0116 28003KT

Observacions i pronòstics meteorològics de més de 4000 aeroports (METAR i TAF).

Les estacions disponibles són els punts grocs i vermells al mapa.

Posi el ratolí al punt desitjat per veure el nom de l'estació.

Feu clic per veure les observacions i els pronòstics meteorològics.

Per canviar el mapa: feu clic els botons verds amb una creu de color negre per apropar; al botó verd amb un guió per allunyar la imatge; o en les fletxes verdes per a mapes adjacents.


METAR-TAF: